Dades meteomassalio
Diari Summary for Nil La, TWC- Units:  English    Metric   Both
« Previous Day
Next Day »
Diari Semanal Mensual Anual Personalitzat
  Maxima: Minima: Mijana:
Temperatura: TemperatureC °F 10.0 °F 10.5 °F
Rosada: DewpointC °F 6.5 °F 6.8 °F
Humitat: Humidity % 75 % 77 %
Velocitat del vent: WindSpeedKMH mph 13.0 mph 25 mph
Racha vent: WindSpeedGustKMH mph - -
Vent:- - NW
Pressio: PressurehPa in 1016.5 in -
Pluja: 0.0 in    
Historical Graphs
 
 
Tabular Data for Nil La, TWC-
Time Temperature Dew Point Pressure Wind Wind Speed Wind Gust Humidity Rainfall Rate (Hourly) solar Conditions
TemperatureC °F DewpointC °F PressurehPa in Calm     Humidity % HourlyPrecipMM in SolarRadiationWatts/m^2 W/m2 Conditions
00:00 11.1 °F 6.8 °F 1018.2 in NW 20.4 mph 20.4 mph 75 % 0.0 in 0.0 W/m2 CLR
00:05 11.1 °F 6.8 °F 1018.2 in NW 20.4 mph 20.4 mph 75 % 0.0 in 0.0 W/m2 CLR
00:06 11.1 °F 6.8 °F 1017.8 in NNW 19.3 mph 19.3 mph 75 % 0.0 in 0.0 W/m2 CLR
00:11 11.1 °F 6.8 °F 1017.8 in NNW 20.4 mph 20.4 mph 75 % 0.0 in 0.0 W/m2 CLR
00:16 11.1 °F 6.8 °F 1018.2 in NW 25.9 mph 25.9 mph 75 % 0.0 in 0.0 W/m2 CLR
00:21 11.1 °F 6.8 °F 1018.2 in NW 20.4 mph 20.4 mph 75 % 0.0 in 0.0 W/m2 CLR
00:26 11.1 °F 6.8 °F 1018.2 in NNW 20.4 mph 20.4 mph 75 % 0.0 in 0.0 W/m2 CLR
00:31 11.1 °F 6.8 °F 1017.8 in NW 24.1 mph 24.1 mph 75 % 0.0 in 0.0 W/m2 CLR
00:36 11.1 °F 6.8 °F 1017.8 in NW 16.7 mph 16.7 mph 75 % 0.0 in 0.0 W/m2 CLR
00:41 11.1 °F 6.8 °F 1017.5 in NW 22.5 mph 22.5 mph 75 % 0.0 in 0.0 W/m2 CLR
00:46 11.1 °F 6.8 °F 1017.8 in NW 18.5 mph 18.5 mph 75 % 0.0 in 0.0 W/m2 CLR
00:51 11.1 °F 6.8 °F 1017.8 in NW 18.5 mph 18.5 mph 75 % 0.0 in 0.0 W/m2 CLR
00:56 11.1 °F 6.8 °F 1017.8 in NW 24.1 mph 24.1 mph 75 % 0.0 in 0.0 W/m2 CLR
01:01 11.1 °F 7.1 °F 1017.8 in NW 16.7 mph 16.7 mph 76 % 0.0 in 0.0 W/m2 CLR
01:06 11.1 °F 6.8 °F 1017.5 in WNW 18.5 mph 18.5 mph 75 % 0.0 in 0.0 W/m2 CLR
01:11 11.1 °F 6.8 °F 1017.5 in NW 27.8 mph 27.8 mph 75 % 0.0 in 0.0 W/m2 CLR
01:16 11.1 °F 7.1 °F 1017.5 in NW 22.2 mph 22.2 mph 76 % 0.0 in 0.0 W/m2 CLR
01:17 11.1 °F 7.1 °F 1017.5 in NW 14.8 mph 14.8 mph 76 % 0.0 in 0.0 W/m2 CLR
01:22 11.1 °F 7.1 °F 1017.5 in NW 18.5 mph 18.5 mph 76 % 0.0 in 0.0 W/m2 CLR
01:27 11.1 °F 6.8 °F 1017.5 in NW 22.2 mph 22.2 mph 75 % 0.0 in 0.0 W/m2 CLR
01:32 11.1 °F 7.1 °F 1017.5 in NW 25.9 mph 25.9 mph 76 % 0.0 in 0.0 W/m2 CLR
01:37 11.1 °F 7.1 °F 1017.5 in NNW 22.5 mph 22.5 mph 76 % 0.0 in 0.0 W/m2 CLR
01:42 11.1 °F 7.1 °F 1017.5 in NW 25.9 mph 25.9 mph 76 % 0.0 in 0.0 W/m2 CLR
01:47 11.1 °F 7.1 °F 1017.5 in NNW 22.2 mph 22.2 mph 76 % 0.0 in 0.0 W/m2 CLR
01:52 11.1 °F 7.1 °F 1017.5 in NW 27.8 mph 27.8 mph 76 % 0.0 in 0.0 W/m2 CLR
01:57 10.6 °F 6.5 °F 1017.2 in NNW 25.9 mph 25.9 mph 76 % 0.0 in 0.0 W/m2 CLR
02:02 10.6 °F 6.5 °F 1017.2 in NNW 27.8 mph 27.8 mph 76 % 0.0 in 0.0 W/m2 CLR
02:07 10.6 °F 6.5 °F 1017.2 in NW 19.3 mph 19.3 mph 76 % 0.0 in 0.0 W/m2 CLR
02:12 10.6 °F 6.5 °F 1017.2 in WNW 18.5 mph 18.5 mph 76 % 0.0 in 0.0 W/m2 CLR
02:17 10.6 °F 6.5 °F 1017.2 in NNW 24.1 mph 24.1 mph 76 % 0.0 in 0.0 W/m2 CLR
02:22 11.1 °F 7.1 °F 1017.2 in NW 29.0 mph 29.0 mph 76 % 0.0 in 0.0 W/m2 CLR
02:27 10.6 °F 6.5 °F 1017.2 in NW 22.2 mph 22.2 mph 76 % 0.0 in 0.0 W/m2 CLR
02:32 10.6 °F 6.5 °F 1017.2 in NW 13.0 mph 13.0 mph 76 % 0.0 in 0.0 W/m2 CLR
02:37 11.1 °F 7.1 °F 1017.2 in NW 24.1 mph 24.1 mph 76 % 0.0 in 0.0 W/m2 CLR
02:42 11.1 °F 7.1 °F 1017.2 in NW 22.2 mph 22.2 mph 76 % 0.0 in 0.0 W/m2 CLR
02:47 11.1 °F 7.1 °F 1017.2 in NNW 24.1 mph 24.1 mph 76 % 0.0 in 0.0 W/m2 CLR
02:52 11.1 °F 7.1 °F 1017.2 in NW 22.2 mph 22.2 mph 76 % 0.0 in 0.0 W/m2 CLR
02:57 10.6 °F 6.5 °F 1017.2 in NW 16.7 mph 16.7 mph 76 % 0.0 in 0.0 W/m2 CLR
03:02 10.6 °F 6.5 °F 1017.2 in NNW 29.6 mph 29.6 mph 76 % 0.0 in 0.0 W/m2 CLR
03:07 10.6 °F 6.5 °F 1017.2 in NW 16.7 mph 16.7 mph 76 % 0.0 in 0.0 W/m2 CLR
03:12 10.6 °F 6.5 °F 1017.2 in NW 18.5 mph 18.5 mph 76 % 0.0 in 0.0 W/m2 CLR
03:17 10.6 °F 6.5 °F 1017.2 in NW 18.5 mph 18.5 mph 76 % 0.0 in 0.0 W/m2 CLR
03:22 10.6 °F 6.5 °F 1017.2 in NW 31.5 mph 31.5 mph 76 % 0.0 in 0.0 W/m2 CLR
03:27 10.6 °F 6.7 °F 1017.2 in NW 33.3 mph 33.3 mph 77 % 0.0 in 0.0 W/m2 CLR
03:32 10.6 °F 6.7 °F 1016.8 in NW 22.2 mph 22.2 mph 77 % 0.0 in 0.0 W/m2 CLR
03:37 10.6 °F 6.7 °F 1016.8 in NW 29.6 mph 29.6 mph 77 % 0.0 in 0.0 W/m2 CLR
03:42 10.6 °F 6.7 °F 1016.8 in NW 29.0 mph 29.0 mph 77 % 0.0 in 0.0 W/m2 CLR
03:47 10.6 °F 6.7 °F 1016.8 in NNW 35.2 mph 35.2 mph 77 % 0.0 in 0.0 W/m2 CLR
04:04 10.6 °F 6.9 °F 1016.5 in North 33.8 mph 33.8 mph 78 % 0.0 in 0.0 W/m2 CLR
04:09 10.6 °F 6.9 °F 1016.5 in North 42.6 mph 42.6 mph 78 % 0.0 in 0.0 W/m2 CLR
04:14 10.6 °F 6.9 °F 1016.5 in NNW 32.2 mph 32.2 mph 78 % 0.0 in 0.0 W/m2 CLR
04:19 10.6 °F 7.1 °F 1016.5 in NW 40.7 mph 40.7 mph 79 % 0.0 in 0.0 W/m2 CLR
04:24 10.6 °F 7.1 °F 1016.5 in North 35.4 mph 35.4 mph 79 % 0.0 in 0.0 W/m2 CLR
04:30 10.6 °F 7.1 °F 1016.5 in NW 31.5 mph 31.5 mph 79 % 0.0 in 0.0 W/m2 CLR
04:35 10.6 °F 7.1 °F 1016.5 in NW 29.6 mph 29.6 mph 79 % 0.0 in 0.0 W/m2 CLR
04:40 10.6 °F 7.1 °F 1016.8 in North 31.5 mph 31.5 mph 79 % 0.0 in 0.0 W/m2 CLR
04:45 10.6 °F 7.2 °F 1016.5 in NNW 29.6 mph 29.6 mph 80 % 0.0 in 0.0 W/m2 CLR
04:50 10.6 °F 7.2 °F 1016.5 in NNW 13.0 mph 13.0 mph 80 % 0.0 in 0.0 W/m2 CLR
04:55 10.6 °F 7.2 °F 1016.5 in NW 33.3 mph 33.3 mph 80 % 0.0 in 0.0 W/m2 CLR
05:00 10.6 °F 7.2 °F 1016.5 in North 25.7 mph 25.7 mph 80 % 0.0 in 0.0 W/m2 CLR
05:05 10.6 °F 7.2 °F 1016.5 in NNW 27.8 mph 27.8 mph 80 % 0.0 in 0.0 W/m2 CLR
05:10 10.6 °F 7.2 °F 1016.5 in NNW 25.9 mph 25.9 mph 80 % 0.0 in 0.0 W/m2 CLR
05:15 10.0 °F 6.7 °F 1016.5 in NW 27.8 mph 27.8 mph 80 % 0.0 in 0.0 W/m2 CLR
05:20 10.0 °F 6.7 °F 1016.5 in NNW 25.7 mph 25.7 mph 80 % 0.0 in 0.0 W/m2 CLR
05:25 10.0 °F 6.9 °F 1016.5 in NW 25.9 mph 25.9 mph 81 % 0.0 in 0.0 W/m2 CLR
05:30 10.0 °F 6.9 °F 1016.5 in NNW 27.8 mph 27.8 mph 81 % 0.0 in 0.0 W/m2 CLR
05:35 10.0 °F 6.9 °F 1016.5 in NW 29.6 mph 29.6 mph 81 % 0.0 in 0.0 W/m2 CLR
05:40 10.0 °F 6.9 °F 1016.5 in NNW 27.8 mph 27.8 mph 81 % 0.0 in 0.0 W/m2 CLR
05:45 10.0 °F 6.9 °F 1016.5 in NW 27.4 mph 27.4 mph 81 % 0.0 in 0.0 W/m2 CLR
05:50 10.0 °F 6.7 °F 1016.8 in NW 27.8 mph 27.8 mph 80 % 0.0 in 0.0 W/m2 CLR
05:55 10.0 °F 6.7 °F 1016.8 in North 25.7 mph 25.7 mph 80 % 0.0 in 0.0 W/m2 CLR
06:00 10.0 °F 6.7 °F 1016.5 in NNW 35.2 mph 35.2 mph 80 % 0.0 in 0.0 W/m2 CLR
06:05 10.6 °F 7.2 °F 1016.8 in North 31.5 mph 31.5 mph 80 % 0.0 in 0.0 W/m2 CLR
06:10 10.0 °F 6.7 °F 1016.5 in NNW 33.3 mph 33.3 mph 80 % 0.0 in 0.0 W/m2 CLR
06:15 10.0 °F 6.7 °F 1016.5 in NNW 29.6 mph 29.6 mph 80 % 0.0 in 0.0 W/m2 CLR
06:20 10.0 °F 6.7 °F 1016.5 in North 27.8 mph 27.8 mph 80 % 0.0 in 0.0 W/m2 CLR
06:25 10.0 °F 6.9 °F 1016.5 in NW 27.8 mph 27.8 mph 81 % 0.0 in 0.0 W/m2 CLR
06:30 10.0 °F 6.9 °F 1016.5 in NW 24.1 mph 24.1 mph 81 % 0.0 in 0.0 W/m2 CLR
06:35 10.0 °F 6.9 °F 1016.5 in NW 22.2 mph 22.2 mph 81 % 0.0 in 0.0 W/m2 CLR
06:40 10.0 °F 6.9 °F 1016.5 in WNW 35.2 mph 35.2 mph 81 % 0.0 in 0.0 W/m2 CLR
06:45 10.0 °F 6.7 °F 1016.5 in North 18.5 mph 18.5 mph 80 % 0.0 in 0.0 W/m2 CLR
Lo Temps de Massalio
Compliments of Weather Underground - 512 kb